Find Starlink 4470

NORAD ID: 53655 Int'l Des: 2022-105 Owner: SPXS Country: US Constellation: starlink operational
LEOCIRCULARRETROGRADESSO

現在のビュー

3D地球を読み込み中...

About Starlink 4470

Starlink 4470 (NORAD 53655) is a starlink constellation satellite (v1.5) launched Aug 31, 2022 by SPXS of US. It operates in LEO, CIRCULAR, RETROGRADE, SSO orbit with a mass of 300.00 kg.

Starlink 4470について

説明を読み込み中...

次回通過

Passes for default location (London). Set your location on the main map for personalized predictions.

高度履歴

Loading altitude history...

軌道要素

1 53655U 22105H 26171.41668980 -.00562145 00000-0 -63765-2 0 9997
2 53655 97.6026 56.1869 0001449 72.7579 2.9631 15.64056611 5917
Epoch: Jun 20, 2026 • Age: 16 hours

現在のステータス

高度 404.4 km
速度 7.67 km/s
衛星直下点 -67.25°S, 131.86°E
打ち上げ日 Aug 31, 2022
運用期間 3.8 years
タイプ internet

技術仕様

分類 Payload
質量 300.00 kg
乾燥質量 290.00 kg
総質量 300.00 kg
長さ 0.20 m
直径 2.80 m
スパン 9.00 m
形状 Box + pan
製造者 SPXS
バスタイプ Starlink
フェーズステータス In Orbit
所有者/国 SPXS/US

Most Searched